DW5499 Weather Reports


time (UTC)temp
F
wind
direction
speed
knots
gust
knots
rain 1hr
in
rain 24hr
in
rain mn
in
humidity
%
barometer
mb
20260506110015 46 255 0.0 2.6 0.00 0.22 0.01 75 1017.4
20260506104515 46 270 0.0 2.6 0.00 0.22 0.01 76 1017.6
20260506103019 46 244 0.9 3.5 0.00 0.22 0.01 77 1017.5
20260506101513 46 255 0.9 4.3 0.00 0.22 0.01 77 1017.5
20260506100011 46 257 0.9 3.5 0.00 0.22 0.01 80 1017.3
20260506094509 46 214 0.9 3.5 0.00 0.22 0.01 80 1016.6
20260506093013 46 230 1.7 4.3 0.00 0.22 0.01 81 1016.8
20260506091508 46 244 1.7 3.5 0.00 0.22 0.01 81 1016.8
20260506090007 46 245 1.7 4.3 0.00 0.22 0.01 81 1016.7
20260506084511 46 263 0.9 3.5 0.00 0.22 0.01 81 1016.7
20260506083007 46 241 0.9 3.5 0.00 0.22 0.01 81 1016.8
20260506081507 46 251 0.9 2.6 0.00 0.22 0.01 81 1016.5
20260506073112 47 238 0.9 2.6 0.00 0.22 0.01 79 1015.7
20260506071557 48 246 0.0 1.7 0.00 0.22 0.01 76 1015.5
20260506061600 49 74 0.0 4.3 0.00 0.22 0.01 65 1015.7
20260506044534 51 304 5.2 15.6 0.00 0.21 0.21 64 1016.7
20260506043033 51 330 5.2 9.6 0.00 0.21 0.21 62 1016.0
20260506041530 50 234 2.6 4.3 0.00 0.21 0.21 71 1015.6
20260506040027 50 263 2.6 4.3 0.00 0.21 0.21 72 1015.4
20260506034526 51 258 2.6 4.3 0.00 0.21 0.21 72 1015.2
20260506033023 52 246 1.7 3.5 0.00 0.21 0.21 62 1014.7
20260506031520 52 353 0.0 0.0 0.00 0.21 0.21 59 1014.3
20260506030018 52 349 0.9 2.6 0.00 0.21 0.21 58 1014.1
20260506024517 52 11 0.9 3.5 0.00 0.21 0.21 58 1013.9
20260506023017 52 354 1.7 7.0 0.00 0.21 0.21 58 1013.8
20260506021515 53 345 1.7 6.1 0.00 0.21 0.21 58 1013.6
20260506020025 53 9 3.5 8.7 0.00 0.21 0.21 57 1013.3
20260506014514 53 308 4.3 10.4 0.00 0.21 0.21 57 1013.1
20260506013013 53 326 0.0 4.3 0.00 0.21 0.21 57 1012.9
20260506011512 53 335 0.0 3.5 0.00 0.21 0.21 55 1012.7
20260506010016 54 335 0.9 5.2 0.00 0.21 0.21 54 1012.5
20260506004521 54 345 1.7 7.0 0.00 0.21 0.21 52 1012.4
20260506003011 54 345 2.6 5.2 0.00 0.21 0.21 52 1012.3
20260506001511 54 340 1.7 5.2 0.00 0.21 0.21 52 1012.4
20260506000010 55 351 0.9 7.8 0.00 0.21 0.21 54 1012.1
20260505234512 55 330 3.5 9.6 0.00 0.21 0.21 59 1012.3
20260505233009 54 349 0.9 3.5 0.00 0.21 0.21 72 1012.1
20260505231513 54 253 0.9 3.5 0.00 0.21 0.21 72 1012.1
20260505230017 54 255 0.9 2.6 0.00 0.21 0.21 71 1012.3
20260505224506 54 228 0.9 3.5 0.00 0.21 0.21 71 1011.8
20260505223007 54 246 0.0 4.3 0.00 0.21 0.21 71 1011.8
20260505221507 54 248 0.9 3.5 0.00 0.21 0.21 71 1011.9
20260505220006 54 243 1.7 4.3 0.00 0.21 0.21 70 1011.9
20260505214505 54 324 0.0 2.6 0.00 0.21 0.21 70 1012.1
20260505213007 53 329 0.9 3.5 0.00 0.21 0.21 71 1012.1
20260505211504 53 328 0.9 3.5 0.00 0.21 0.21 71 1012.2
20260505210004 53 282 0.0 2.6 0.00 0.21 0.21 71 1012.2
20260505204503 53 297 0.0 4.3 0.00 0.21 0.21 70 1012.3
20260505203010 53 340 1.7 4.3 0.00 0.21 0.21 70 1012.5
20260505201505 52 340 1.7 5.2 0.00 0.21 0.21 70 1012.4
20260505200002 52 356 0.0 3.5 0.00 0.21 0.21 71 1012.6
20260505194501 51 2 0.0 4.3 0.00 0.21 0.21 71 1012.5
20260505193001 51 18 1.7 6.1 0.00 0.21 0.21 71 1012.8
20260505191606 51 350 0.9 5.2 0.00 0.21 0.21 72 1012.6
20260505190115 51 8 0.0 2.6 0.00 0.21 0.21 72 1012.8
20260505184600 51 24 0.9 4.3 0.00 0.21 0.21 73 1012.7
20260505183059 51 95 0.0 2.6 0.00 0.21 0.21 73 1012.7
20260505181641 50 70 0.9 3.5 0.00 0.21 0.21 74 1012.9
20260505180106 50 124 1.7 6.1 0.00 0.21 0.21 75 1012.7
20260505174536 50 62 2.6 5.2 0.00 0.21 0.21 75 1012.8
20260505173026 50 68 3.5 6.1 0.00 0.21 0.21 76 1013.0
20260505171533 49 43 3.5 7.0 0.00 0.21 0.21 79 1012.9
20260505170025 49 33 2.6 6.1 0.00 0.21 0.21 80 1013.0
20260505164525 49 353 1.7 4.3 0.00 0.21 0.21 81 1013.3
20260505163024 48 40 0.9 4.3 0.00 0.21 0.21 80 1013.4
20260505161524 48 31 2.6 4.3 0.00 0.21 0.21 81 1013.2
20260505153033 48 47 0.9 5.2 0.05 0.21 0.21 81 1013.1
20260505151522 48 70 0.0 2.6 0.07 0.21 0.21 83 1013.1
20260505124557 50 360 0.0 2.6 0.04 0.04 0.04 71 1011.2
20260505123059 51 37 0.9 5.2 0.03 0.03 0.03 65 1010.5
20260505121551 51 35 0.0 3.5 0.02 0.02 0.02 63 1010.3
20260505120106 52 33 6.1 8.7 0.01 0.01 0.01 58 1009.6
20260505114544 53 29 0.0 6.1 0.00 0.00 0.00 52 1010.6
20260505113042 53 47 3.5 9.6 0.00 0.00 0.00 50 1009.8
20260505111542 53 62 2.6 9.6 0.00 0.00 0.00 50 1009.9